K5SOI Weather Reports


time (UTC)temp
F
wind
direction
speed
knots
gust
knots
rain 1hr
in
rain 24hr
in
rain mn
in
humidity
%
barometer
mb
20260506114101 76 106 4.3 4.3 0.00 0.01 0.01 98 1007.6
20260506113059 76 110 4.3 5.2 0.00 0.01 0.01 98 1007.5
20260506112558 76 113 4.3 7.0 0.00 0.01 0.01 98 1007.4
20260506112059 76 119 4.3 7.0 0.00 0.01 0.01 98 1007.4
20260506111559 76 108 5.2 7.0 0.00 0.01 0.01 98 1007.3
20260506111059 76 110 5.2 7.8 0.00 0.01 0.01 98 1007.3
20260506110558 76 109 6.1 7.8 0.00 0.01 0.01 98 1007.3
20260506110058 76 106 6.1 7.8 0.00 0.01 0.01 99 1007.3
20260506105558 76 108 5.2 7.0 0.00 0.01 0.01 99 1007.3
20260506105058 76 115 5.2 6.1 0.00 0.01 0.01 98 1007.3
20260506104559 76 114 4.3 6.1 0.00 0.01 0.01 98 1007.3
20260506103057 76 118 5.2 7.8 0.00 0.01 0.01 98 1007.4
20260506102557 76 109 5.2 7.0 0.00 0.01 0.01 98 1007.5
20260506101558 76 123 4.3 6.1 0.00 0.01 0.01 98 1007.3
20260506100557 76 114 4.3 5.2 0.00 0.01 0.01 98 1007.3
20260506100057 76 115 3.5 4.3 0.00 0.01 0.01 98 1007.3
20260506095558 76 127 2.6 4.3 0.00 0.01 0.01 98 1007.3
20260506095057 76 134 3.5 5.2 0.00 0.01 0.01 98 1007.3
20260506094557 76 114 4.3 5.2 0.00 0.01 0.01 98 1007.2
20260506094058 76 109 5.2 6.1 0.00 0.01 0.01 98 1007.2
20260506093558 76 114 4.3 6.1 0.00 0.01 0.01 98 1007.2
20260506093057 76 116 4.3 5.2 0.00 0.01 0.01 98 1007.2
20260506092556 76 115 4.3 5.2 0.00 0.01 0.01 98 1007.2
20260506092057 76 110 4.3 5.2 0.00 0.01 0.01 98 1007.3
20260506091556 76 108 4.3 5.2 0.00 0.01 0.01 98 1007.3
20260506091059 76 112 4.3 6.1 0.00 0.01 0.01 98 1007.1
20260506090057 76 112 4.3 6.1 0.00 0.01 0.01 98 1007.1
20260506084556 76 107 5.2 7.0 0.00 0.01 0.01 98 1007.1
20260506083558 76 117 4.3 6.1 0.00 0.01 0.01 98 1007.1
20260506082556 76 114 5.2 7.0 0.00 0.01 0.01 98 1007.2
20260506081556 76 113 5.2 7.0 0.00 0.01 0.01 98 1007.2
20260506081056 76 112 4.3 5.2 0.00 0.01 0.01 98 1007.3
20260506080556 76 116 5.2 7.0 0.01 0.01 0.01 98 1007.3
20260506073056 76 111 4.3 5.2 0.01 0.01 0.01 98 1007.6
20260506072555 76 110 3.5 5.2 0.01 0.01 0.01 98 1007.7
20260506072056 76 136 2.6 4.3 0.01 0.01 0.01 96 1007.8
20260506071556 76 153 3.5 7.0 0.01 0.01 0.01 96 1007.9
20260506071055 76 148 5.2 7.0 0.01 0.01 0.01 96 1007.9
20260506070555 76 128 5.2 7.0 0.00 0.00 0.00 95 1008.0
20260506062056 77 143 6.1 8.7 0.00 0.00 0.00 93 1008.3
20260506061555 77 148 7.0 10.4 0.00 0.00 0.00 93 1008.3
20260506061055 77 152 6.1 8.7 0.00 0.00 0.00 93 1008.3
20260506060555 77 144 6.1 10.4 0.00 0.00 0.00 93 1008.3
20260506051055 77 140 7.8 11.3 0.00 0.00 0.00 92 1007.9
20260506050554 77 142 8.7 13.9 0.00 0.00 0.00 92 1007.9
20260506045053 77 137 9.6 13.9 0.00 0.00 0.00 92 1007.9
20260506044054 77 137 10.4 13.0 0.00 0.00 0.00 92 1007.8
20260506043554 77 141 10.4 15.6 0.00 0.00 0.00 93 1007.7
20260506043054 77 137 9.6 13.9 0.00 0.00 0.00 92 1007.7
20260506042554 77 136 10.4 15.6 0.00 0.00 0.00 92 1007.7
20260506041553 77 143 11.3 17.4 0.00 0.00 0.00 92 1007.6
20260506041053 77 139 9.6 15.6 0.00 0.00 0.00 92 1007.6
20260506040053 77 136 8.7 13.0 0.00 0.00 0.00 92 1007.6
20260506035553 77 133 10.4 17.4 0.00 0.00 0.00 92 1007.7
20260506035054 77 135 10.4 15.6 0.00 0.00 0.00 92 1007.6
20260506034553 77 138 10.4 13.9 0.00 0.00 0.00 92 1007.6
20260506034054 77 142 9.6 13.0 0.00 0.00 0.00 92 1007.6
20260506033553 77 137 9.6 13.0 0.00 0.00 0.00 92 1007.6
20260506033053 78 134 8.7 13.0 0.00 0.00 0.00 92 1007.6
20260506032554 77 139 7.8 12.2 0.00 0.00 0.00 92 1007.6
20260506032053 78 143 8.7 11.3 0.00 0.00 0.00 92 1007.6
20260506031053 78 146 6.1 10.4 0.00 0.00 0.00 92 1007.6
20260506030552 78 138 8.7 10.4 0.00 0.00 0.00 92 1007.5
20260506030052 78 135 7.8 11.3 0.00 0.00 0.00 92 1007.4
20260506025553 78 138 8.7 11.3 0.00 0.00 0.00 91 1007.4
20260506024553 78 138 7.8 10.4 0.00 0.00 0.00 91 1007.2
20260506024053 78 145 7.8 13.0 0.00 0.00 0.00 91 1007.2
20260506023552 78 139 7.0 10.4 0.00 0.00 0.00 91 1007.0
20260506023052 78 144 8.7 13.0 0.00 0.00 0.00 91 1007.0
20260506022552 78 135 8.7 11.3 0.00 0.00 0.00 91 1007.0
20260506022053 78 140 7.8 13.0 0.00 0.00 0.00 91 1007.0
20260506021552 78 150 7.8 11.3 0.00 0.00 0.00 91 1006.9
20260506021052 78 141 7.8 11.3 0.00 0.00 0.00 91 1006.8
20260506020552 78 147 9.6 13.0 0.00 0.00 0.00 89 1006.7
20260506020051 78 139 8.7 11.3 0.00 0.00 0.00 89 1006.7
20260506015052 78 145 8.7 13.0 0.00 0.00 0.00 89 1006.6
20260506014052 78 149 8.7 13.0 0.00 0.00 0.00 89 1006.3
20260506013553 78 144 7.8 12.2 0.00 0.00 0.00 89 1006.4
20260506013052 78 149 7.8 11.3 0.00 0.00 0.00 89 1006.4
20260506012551 78 145 9.6 13.9 0.00 0.00 0.00 89 1006.3
20260506012052 78 141 8.7 15.6 0.00 0.00 0.00 89 1006.3
20260506011051 78 143 9.6 13.0 0.00 0.00 0.00 88 1006.1
20260506010551 78 136 9.6 13.9 0.00 0.00 0.00 88 1006.0
20260506010051 79 142 7.8 13.0 0.00 0.00 0.00 87 1006.0
20260506005551 79 141 8.7 17.4 0.00 0.00 0.00 87 1006.0
20260506003550 79 137 8.7 12.2 0.00 0.00 0.00 86 1005.7
20260506003051 79 148 7.8 12.2 0.00 0.00 0.00 86 1005.6
20260506002550 79 145 8.7 13.9 0.00 0.00 0.00 85 1005.6
20260506002051 80 151 10.4 15.6 0.00 0.00 0.00 85 1005.6
20260506001551 80 150 12.2 18.2 0.00 0.00 0.00 84 1005.7
20260506001051 80 146 10.4 17.4 0.00 0.00 0.00 84 1005.6
20260506000050 80 141 12.2 20.0 0.00 0.00 0.00 84 1005.6
20260505235550 80 150 10.4 20.0 0.00 0.00 0.00 84 1005.6
20260505234550 80 156 11.3 19.1 0.00 0.00 0.00 82 1005.6
20260505234051 80 150 9.6 17.4 0.00 0.00 0.00 83 1005.6
20260505233550 80 147 11.3 20.0 0.00 0.00 0.00 82 1005.6
20260505233050 80 145 10.4 17.4 0.00 0.00 0.00 82 1005.7
20260505232550 81 154 11.3 17.4 0.00 0.00 0.00 82 1005.6
20260505231550 81 154 8.7 15.6 0.00 0.00 0.00 82 1005.7
20260505231051 81 144 9.6 13.0 0.00 0.00 0.00 82 1005.7
20260505230550 81 141 10.4 17.4 0.00 0.00 0.00 82 1005.7
20260505230049 81 144 10.4 15.6 0.00 0.00 0.00 81 1005.7
20260505225550 81 143 10.4 18.2 0.00 0.00 0.00 81 1005.7
20260505225050 81 147 8.7 17.4 0.00 0.00 0.00 81 1005.9
20260505224550 81 157 8.7 17.4 0.00 0.00 0.00 82 1006.0
20260505224050 81 148 11.3 17.4 0.00 0.00 0.00 81 1006.0
20260505223550 81 163 9.6 15.6 0.00 0.00 0.00 81 1006.0
20260505223049 81 158 10.4 17.4 0.00 0.00 0.00 81 1006.0
20260505222049 81 150 7.8 15.6 0.00 0.00 0.00 82 1006.1
20260505221549 82 150 9.6 15.6 0.00 0.00 0.00 81 1006.1
20260505221050 82 142 12.2 17.4 0.00 0.00 0.00 81 1006.1
20260505220549 82 145 11.3 17.4 0.00 0.00 0.00 80 1006.1
20260505220048 82 148 11.3 17.4 0.00 0.00 0.00 79 1006.1
20260505215549 82 146 11.3 17.4 0.00 0.00 0.00 80 1006.1
20260505214548 82 156 10.4 17.4 0.00 0.00 0.00 79 1006.1
20260505214050 82 147 10.4 18.2 0.00 0.00 0.00 80 1006.2
20260505213548 82 146 11.3 18.2 0.00 0.00 0.00 79 1006.4
20260505213049 82 139 8.7 13.9 0.00 0.00 0.00 80 1006.5
20260505212549 82 154 9.6 15.6 0.00 0.00 0.00 79 1006.6
20260505212048 82 149 10.4 17.4 0.00 0.00 0.00 79 1006.7
20260505211548 82 164 10.4 20.0 0.00 0.00 0.00 79 1006.7
20260505211049 82 142 11.3 21.7 0.00 0.00 0.00 79 1006.7
20260505210548 82 140 13.0 17.4 0.00 0.00 0.00 78 1006.8
20260505210048 82 141 11.3 19.1 0.00 0.00 0.00 78 1006.8
20260505205049 83 137 11.3 20.0 0.00 0.00 0.00 78 1006.9
20260505204547 84 150 13.0 20.0 0.00 0.00 0.00 77 1006.9
20260505204048 84 147 8.7 13.0 0.00 0.00 0.00 77 1006.9
20260505203549 83 143 13.9 18.2 0.00 0.00 0.00 78 1007.0
20260505202048 82 142 13.0 18.2 0.00 0.00 0.00 79 1007.2
20260505201547 82 145 12.2 19.1 0.00 0.00 0.00 79 1007.2
20260505201048 82 147 13.9 18.2 0.00 0.00 0.00 79 1007.3
20260505200047 83 151 12.2 19.1 0.00 0.00 0.00 80 1007.4
20260505195547 81 149 12.2 18.2 0.00 0.00 0.00 82 1007.5
20260505194547 81 165 10.4 17.4 0.00 0.00 0.00 82 1007.6
20260505194047 81 148 7.8 13.9 0.00 0.00 0.00 82 1007.7
20260505193547 81 144 8.7 13.0 0.00 0.00 0.00 82 1007.8
20260505193047 81 143 8.7 12.2 0.00 0.00 0.00 82 1007.8
20260505192547 81 141 8.7 11.3 0.00 0.00 0.00 82 1007.8
20260505192047 80 150 7.0 12.2 0.00 0.00 0.00 84 1007.9
20260505191547 81 154 7.8 12.2 0.00 0.00 0.00 82 1007.9
20260505191047 81 150 7.8 17.4 0.00 0.00 0.00 82 1007.9
20260505190547 81 156 8.7 13.9 0.00 0.00 0.00 82 1007.9
20260505190046 81 153 7.0 10.4 0.00 0.00 0.00 82 1008.0
20260505185549 80 157 7.0 10.4 0.00 0.00 0.00 82 1008.0
20260505185046 80 174 7.8 13.0 0.00 0.00 0.00 82 1008.0
20260505184546 80 151 7.8 15.6 0.00 0.00 0.00 84 1008.1
20260505184046 80 142 8.7 17.4 0.00 0.00 0.00 82 1008.2
20260505183547 80 138 10.4 17.4 0.00 0.00 0.00 82 1008.2
20260505183047 81 145 8.7 15.6 0.00 0.00 0.00 84 1008.2
20260505182046 81 137 10.4 17.4 0.00 0.00 0.00 83 1008.1
20260505181547 81 141 7.8 13.0 0.00 0.00 0.00 82 1008.1
20260505181046 81 163 8.7 13.0 0.00 0.00 0.00 80 1008.2
20260505180047 81 138 8.7 13.9 0.00 0.00 0.00 81 1008.2
20260505175545 81 152 10.4 17.4 0.00 0.00 0.00 80 1008.2
20260505175046 81 160 7.8 13.9 0.00 0.00 0.00 80 1008.2
20260505174046 80 165 7.8 13.9 0.00 0.00 0.00 81 1008.3
20260505173546 80 159 5.2 10.4 0.00 0.00 0.00 82 1008.3
20260505173046 81 165 5.2 10.4 0.00 0.00 0.00 81 1008.4
20260505172545 81 178 7.8 11.3 0.00 0.00 0.00 80 1008.5
20260505172046 81 182 5.2 11.3 0.00 0.00 0.00 81 1008.5
20260505171546 80 172 6.1 13.9 0.00 0.00 0.00 81 1008.6
20260505171045 81 180 6.1 13.9 0.00 0.00 0.00 80 1008.6
20260505170046 80 174 7.8 12.2 0.00 0.00 0.00 82 1008.6
20260505165546 80 183 5.2 12.2 0.00 0.00 0.00 84 1008.7
20260505165045 80 177 4.3 8.7 0.00 0.00 0.00 85 1008.8
20260505164546 79 174 7.0 10.4 0.00 0.00 0.00 85 1008.8
20260505164045 79 160 4.3 7.8 0.00 0.00 0.00 86 1008.8
20260505163545 79 189 3.5 7.8 0.00 0.00 0.00 86 1008.7
20260505163045 79 197 3.5 8.7 0.00 0.00 0.00 87 1008.7
20260505162544 79 187 2.6 7.8 0.00 0.00 0.00 87 1008.7
20260505162045 79 187 4.3 7.8 0.00 0.00 0.00 87 1008.8
20260505161545 78 190 5.2 8.7 0.00 0.00 0.00 89 1008.7
20260505161044 77 186 5.2 10.4 0.00 0.00 0.00 89 1008.7
20260505153044 78 163 7.8 13.0 0.00 0.00 0.00 88 1008.6
20260505152545 78 165 6.1 12.2 0.00 0.00 0.00 89 1008.6
20260505152044 78 170 6.1 13.9 0.00 0.00 0.00 89 1008.6
20260505151044 77 159 4.3 8.7 0.00 0.00 0.00 92 1008.6
20260505140543 76 166 5.2 10.4 0.00 0.00 0.00 92 1008.5
20260505124543 74 150 5.2 7.8 0.00 0.00 0.00 95 1008.0
20260505124043 74 176 4.3 8.7 0.00 0.00 0.00 95 1008.1
20260505123042 74 154 5.2 8.7 0.00 0.00 0.00 95 1008.0
20260505122542 74 148 4.3 8.7 0.00 0.00 0.00 95 1008.0
20260505121542 74 152 4.3 8.7 0.00 0.00 0.00 95 1007.9
20260505121042 73 156 4.3 7.8 0.00 0.00 0.00 96 1007.8
20260505120543 73 155 4.3 7.0 0.00 0.00 0.00 96 1007.8
20260505120041 73 167 3.5 7.0 0.00 0.00 0.00 96 1007.9
20260505115042 73 159 5.2 7.8 0.00 0.00 0.00 95 1007.9
20260505114542 73 159 4.3 7.0 0.00 0.00 0.00 96 1007.9